Theta_e
305 305 305 304 304 304 304 305 305 306 306 307 307 308 307 306 305 306 304 309 301 295 296 297 297 292 295 294 292 298 296 297 297 292 289 289 292 297 296 299 299 298 299 299 300 297 295 312 311 305 313 316 317 316
304 305 305 304 304 304 304 305 305 305 306 306 307 307 307 306 305 306 302 310 309 297 296 303 303 302 300 297 294 298 297 295 296 294 295 294 290 293 294 291 304 298 303 301 303 303 314 314 314 319 319 318 318 319
303 304 304 305 305 305 304 305 305 305 306 306 307 307 307 306 306 306 306 308 305 299 299 299 298 304 308 306 306 296 299 301 301 304 300 296 291 295 290 294 295 302 308 304 306 309 311 314 316 319 319 318 320 320
302 303 304 304 305 305 305 305 305 305 306 306 306 307 306 307 307 306 305 310 307 300 292 298 306 303 306 307 305 306 303 303 303 302 299 296 293 296 292 295 296 301 303 304 305 308 311 313 316 317 318 319 323 323
302 303 304 304 305 305 305 305 305 305 306 307 306 306 307 306 307 307 310 311 309 299 293 295 302 304 305 305 304 305 304 302 299 296 297 295 297 295 296 296 293 300 300 299 301 309 309 311 315 316 317 319 321 320
302 302 303 304 304 304 305 305 305 306 306 306 306 306 306 307 306 304 298 309 307 308 296 291 302 301 302 304 303 303 303 302 300 297 296 299 303 299 293 291 298 300 304 307 305 314 314 316 318 318 317 319 321 322
302 302 303 304 304 304 304 305 305 306 306 306 306 306 305 306 306 300 298 303 305 308 296 292 294 300 302 303 302 301 304 301 299 297 295 296 297 300 294 291 300 302 302 305 311 311 310 312 312 315 317 318 318 322
302 302 303 303 303 304 304 305 305 306 306 306 306 305 305 306 305 300 308 306 306 300 301 290 292 294 302 298 295 300 298 299 298 297 298 295 296 297 291 297 300 302 304 304 305 311 311 312 314 315 318 318 318 319
301 302 302 303 303 303 303 304 305 305 305 305 305 304 307 304 300 303 306 306 308 300 293 295 289 287 301 296 298 298 299 291 299 294 294 296 294 290 295 297 298 301 303 303 305 309 310 309 308 312 314 314 314 315
301 301 302 302 303 303 304 304 305 305 305 306 307 302 297 302 305 307 302 298 297 297 297 293 298 290 294 292 293 296 297 292 290 293 297 292 292 298 299 301 301 303 304 306 302 302 306 306 307 307 311 313 315 315
301 301 302 302 303 304 304 304 305 304 306 305 299 299 305 307 304 300 294 293 295 291 296 297 296 292 297 289 289 292 291 293 287 293 291 291 291 297 301 301 303 304 306 306 307 308 309 309 309 309 309 311 314 316
301 301 301 302 302 304 304 304 304 306 305 302 301 303 305 302 300 293 292 295 293 290 296 295 296 299 296 294 288 290 288 291 285 298 292 289 294 300 302 302 303 305 306 306 308 308 309 310 310 312 315 317 317 318
301 301 301 302 303 304 304 304 303 304 305 308 303 299 298 297 288 287 284 289 290 295 297 296 292 296 298 293 288 287 284 286 291 289 289 295 301 303 306 305 305 306 307 308 307 310 311 311 312 312 313 316 320 320
300 301 301 302 303 303 304 304 304 306 307 301 296 287 292 289 292 293 291 292 296 297 297 295 296 294 296 292 291 285 289 287 285 285 287 293 295 299 302 306 306 305 307 309 310 311 312 312 313 314 315 318 319 320
300 301 301 303 303 303 303 304 304 310 305 297 297 288 291 297 297 298 298 298 299 298 299 298 297 296 293 291 290 288 286 284 285 283 288 290 296 296 298 301 302 300 301 304 309 311 312 314 314 317 322 324 325 325
300 301 305 303 302 303 303 307 311 310 306 299 297 293 297 295 295 296 296 296 301 300 300 300 293 290 288 288 286 285 284 282 284 285 294 295 296 295 297 299 299 299 300 301 302 308 312 313 316 318 319 321 321 321
300 305 302 302 302 302 305 308 308 299 299 296 296 299 296 295 294 296 296 297 301 298 294 294 289 287 292 288 286 286 283 284 286 295 300 301 300 299 299 299 299 298 298 300 303 305 308 312 314 315 314 317 319 320
299 301 302 302 303 306 310 308 303 299 293 299 297 297 299 299 296 298 298 300 299 297 296 293 295 288 286 284 286 287 287 295 298 299 302 304 304 303 303 301 302 302 301 301 302 303 305 308 310 311 313 314 314 316
299 300 300 301 302 304 303 303 305 296 297 299 299 300 299 299 300 300 301 301 301 301 298 297 292 290 290 293 293 295 296 297 296 300 303 305 306 305 304 304 303 303 303 303 303 303 304 306 308 311 311 312 311 312
299 300 302 302 303 305 298 302 307 299 296 299 300 298 298 299 301 300 300 300 300 298 294 292 293 295 296 297 299 299 300 303 303 300 301 303 304 305 305 304 304 305 305 305 304 300 305 305 306 307 309 309 309 309
301 304 303 307 309 306 302 300 299 302 299 297 299 298 297 299 298 297 297 300 297 296 294 297 298 301 303 303 302 305 303 302 299 299 299 301 303 303 304 304 305 305 304 304 304 303 302 304 305 306 307 308 308 308
304 300 305 308 302 301 300 303 299 300 299 298 297 298 296 296 296 296 300 297 296 298 299 299 300 301 301 302 302 306 304 304 304 301 298 300 301 301 302 303 303 303 304 304 305 305 306 306 307 307 308 308 306 308
301 303 304 302 296 295 292 304 296 297 293 295 296 293 294 296 297 300 298 297 298 300 300 301 302 303 302 303 303 304 305 305 302 303 302 302 302 303 303 304 305 304 303 305 307 306 306 298 304 307 308 308 309 309
297 299 296 295 295 290 297 294 298 295 295 293 292 289 292 295 298 294 292 296 298 299 298 300 302 301 301 303 301 301 303 303 303 303 303 303 302 302 303 303 304 305 305 305 306 306 307 307 302 306 307 307 307 306
289 289 292 285 295 291 289 289 290 291 287 289 289 290 292 298 292 290 291 295 296 296 297 299 301 301 300 302 303 301 305 303 301 301 303 304 304 303 302 303 304 305 307 305 305 304 305 306 306 306 307 307 307 307
285 288 287 291 291 289 289 285 287 287 289 287 288 293 296 292 287 287 293 296 296 296 297 298 299 299 300 300 300 302 303 305 304 303 304 305 304 303 302 301 301 303 307 306 305 303 304 305 306 306 306 305 296 307
284 286 294 298 296 294 291 292 293 290 286 285 289 288 289 283 284 292 298 298 299 298 299 299 300 297 298 300 302 303 305 306 305 304 305 305 305 305 304 302 301 302 306 306 306 305 304 304 304 305 304 305 306 307
289 291 288 293 293 294 289 289 287 286 288 292 291 285 284 286 287 296 299 300 298 298 298 299 300 302 300 300 302 302 302 304 305 305 305 305 304 304 304 304 303 289 303 303 304 306 306 304 304 304 304 303 304 306
289 293 293 289 290 291 290 288 288 291 294 292 289 288 289 293 295 295 296 297 298 297 295 295 296 300 302 302 303 302 301 301 299 298 297 298 298 299 301 301 302 303 304 304 285 293 301 303 304 304 305 304 305 306
288 293 290 289 287 286 290 293 292 294 295 295 295 293 293 294 296 298 297 296 295 294 295 296 296 297 299 298 297 299 299 298 297 296 294 294 295 298 298 298 299 300 301 301 301 301 290 299 297 302 300 299 298 300
292 292 290 290 288 290 292 294 295 295 294 293 294 292 290 293 295 297 297 297 297 296 295 295 295 296 299 297 296 293 293 296 295 295 293 296 297 297 297 297 298 299 299 299 299 298 298 297 297 295 296 295 294 293
290 289 289 286 288 293 294 292 292 291 291 291 291 293 292 291 289 293 298 298 296 294 291 293 295 295 297 296 297 297 285 296 295 293 290 292 294 294 296 296 297 298 298 297 297 296 295 295 294 294 292 291 292 291
290 290 290 289 288 287 291 291 289 289 290 291 289 290 290 289 287 293 298 298 296 295 295 296 295 294 293 293 293 293 291 293 287 283 283 283 282 284 291 294 295 296 295 295 295 294 293 292 291 290 290 289 288 288
Wind_Speed
25 23 21 21 21 21 21 22 22 23 23 24 23 20 9 9 3 6 3 5 4 4 12 12 4 5 8 4 6 8 11 13 10 13 9 4 9 13 16 22 26 19 19 15 18 16 18 19 14 22 10 2 12 17
25 24 21 20 20 20 20 21 21 22 22 22 21 18 12 5 1 4 4 3 5 5 8 16 15 11 13 10 5 7 5 4 6 8 9 7 8 4 9 9 16 22 20 14 17 12 5 15 14 14 11 9 7 11
26 24 23 21 20 20 20 21 21 21 21 21 19 18 12 6 7 7 6 5 4 6 10 10 3 13 17 17 10 4 4 6 9 6 9 5 7 5 7 7 12 13 15 15 14 14 13 8 10 14 12 11 10 9
25 24 23 23 22 21 20 20 20 20 20 19 17 16 13 13 11 12 5 5 5 5 6 4 3 2 2 3 5 6 7 7 6 8 7 9 5 8 12 10 11 12 11 9 13 6 15 12 14 7 15 11 8 7
24 24 24 23 22 22 22 21 20 19 19 19 18 16 14 13 13 12 6 2 3 5 6 7 12 2 5 6 8 7 6 7 9 7 6 8 9 8 10 15 13 12 13 10 8 8 6 7 9 6 5 9 8 9
24 24 24 24 23 23 23 23 22 21 20 20 19 17 15 12 10 4 2 3 5 4 5 5 5 6 3 6 8 10 7 7 8 9 7 4 13 3 6 14 21 20 20 20 14 10 5 10 8 7 5 9 7 13
24 25 25 25 24 23 23 23 23 22 22 20 18 16 13 11 8 3 5 7 9 6 3 5 5 4 10 5 5 8 7 7 8 9 9 9 10 4 6 13 17 22 24 20 15 4 6 10 8 5 7 10 9 9
24 25 25 25 25 24 24 24 24 23 23 21 18 12 9 9 11 5 2 5 7 6 3 3 5 2 6 3 3 3 5 6 6 9 9 10 10 10 9 16 22 23 19 24 23 11 11 14 9 11 9 9 10 9
25 25 26 25 25 26 23 23 24 24 24 21 13 8 5 5 2 1 7 8 5 5 4 3 3 4 7 4 4 3 4 4 5 8 11 7 10 10 12 15 15 21 17 18 13 16 12 14 17 15 16 13 13 14
25 26 26 26 25 24 23 22 23 24 23 19 9 5 1 3 5 8 2 2 2 3 4 6 0 3 0 1 4 3 3 4 4 7 9 9 15 20 21 17 16 16 17 20 18 14 15 21 19 20 19 16 16 15
27 26 26 26 26 24 22 21 22 23 5 5 4 4 8 5 2 3 3 3 3 4 4 4 4 7 4 4 3 2 3 3 4 5 8 7 13 19 23 22 19 16 17 16 9 13 17 17 17 17 20 20 19 20
27 26 26 26 25 23 21 21 18 11 7 6 5 5 5 4 2 5 5 3 3 4 4 6 11 9 1 2 2 3 3 4 6 6 4 8 7 6 18 21 20 18 17 17 17 17 20 22 20 15 13 17 19 21
28 27 26 25 23 20 20 20 18 15 14 4 5 3 4 3 5 7 8 6 7 8 9 12 11 5 4 5 3 3 5 4 4 4 5 4 8 10 9 6 10 14 15 16 17 17 18 22 21 20 19 19 20 18
28 28 26 23 19 21 22 20 17 11 7 4 5 4 5 4 3 3 9 11 8 10 13 12 10 4 4 3 2 3 2 2 4 4 3 6 10 9 9 8 9 13 17 12 16 19 20 21 18 19 20 20 21 18
28 30 25 14 21 23 23 20 16 7 4 5 4 5 5 6 6 5 6 6 5 6 10 7 5 3 3 4 4 4 5 5 5 5 3 6 8 7 8 6 10 13 13 8 8 13 15 12 13 13 6 6 5 6
28 29 5 18 23 25 25 14 4 3 1 4 4 6 9 10 11 11 10 9 11 11 9 3 5 5 4 7 5 6 9 6 5 5 2 3 6 10 10 13 15 14 14 12 11 6 11 10 11 12 13 13 11 11
27 6 18 20 24 28 12 5 3 3 4 4 4 7 8 9 9 8 9 9 7 8 10 6 7 6 6 6 6 5 7 7 8 8 8 7 8 6 8 11 12 10 12 13 8 10 7 8 13 14 16 14 13 13
10 16 19 21 18 13 4 2 3 3 3 3 3 6 8 7 8 9 8 7 8 9 7 3 2 6 5 7 5 3 4 8 9 10 10 12 12 11 10 9 7 7 8 8 11 9 9 9 14 12 13 13 11 11
19 19 24 20 9 7 4 2 2 4 3 5 5 6 5 7 7 8 8 8 7 6 5 5 5 3 3 3 9 9 5 4 4 9 9 8 9 11 12 11 12 11 9 7 8 5 7 10 9 10 10 9 8 7
31 17 14 12 4 4 5 2 2 4 3 4 7 5 5 5 7 6 7 7 7 6 6 5 6 6 6 4 4 6 4 4 4 6 9 7 8 11 10 8 9 8 9 10 8 8 8 8 9 8 9 7 6 6
18 5 9 5 3 4 4 4 4 1 5 5 7 6 5 5 5 4 5 4 5 4 6 6 7 6 6 7 2 5 7 7 7 8 9 8 9 9 9 9 9 7 8 9 9 10 10 9 9 9 7 5 6 7
6 6 6 2 4 3 4 4 4 5 4 6 6 6 4 4 5 5 5 3 3 3 5 6 5 6 5 7 6 7 6 10 9 6 5 7 10 10 10 9 8 10 9 7 9 10 10 9 8 9 8 9 8 7
11 4 6 5 4 2 6 1 5 2 4 4 5 5 4 2 4 5 2 2 1 4 6 7 8 10 8 7 5 7 7 7 8 8 8 8 9 9 9 10 10 8 9 10 8 7 8 6 8 8 8 8 8 7
6 5 5 4 6 4 3 4 3 3 4 3 3 5 5 3 4 5 3 3 2 5 5 7 7 5 5 6 6 6 6 2 1 6 6 11 8 8 9 10 10 10 9 8 8 7 9 8 7 8 8 8 7 9
4 6 4 6 5 5 5 4 5 4 5 4 6 7 4 2 4 6 3 2 4 4 4 6 7 7 5 4 5 7 8 8 5 6 7 5 4 7 6 7 9 10 10 10 10 10 9 8 8 9 10 10 11 8
7 6 8 7 4 6 6 4 6 6 6 4 4 4 3 4 5 6 3 1 3 4 4 4 5 6 5 6 5 5 7 8 7 3 4 6 7 6 6 7 6 8 9 9 8 9 10 10 10 11 9 8 7 9
7 8 7 5 4 5 4 4 3 3 5 5 4 3 4 5 5 1 2 4 2 4 5 3 2 3 6 7 6 6 6 4 6 5 4 5 5 6 6 6 7 7 7 9 8 8 8 9 9 9 9 9 10 11
9 7 14 9 8 6 7 5 5 5 6 4 2 5 4 6 5 2 1 3 5 5 6 7 6 3 5 4 5 5 5 5 5 5 3 3 4 5 5 5 5 3 4 8 9 7 9 8 7 7 8 8 8 10
7 6 9 11 10 6 7 7 7 6 5 5 8 8 10 8 6 6 7 7 6 6 7 7 7 3 3 4 1 3 5 5 7 6 8 3 3 5 5 5 5 5 5 5 6 7 7 7 9 9 9 11 10 9
8 9 8 10 10 9 7 8 6 6 6 6 6 7 8 8 7 6 7 8 7 7 7 9 9 5 3 5 3 1 5 7 8 8 4 2 6 5 5 6 5 5 5 5 6 5 7 4 6 8 10 8 7 7
5 9 12 9 10 9 10 7 7 7 7 7 8 8 10 10 8 8 7 7 4 5 8 10 8 4 2 3 2 2 2 4 5 7 8 7 6 6 6 5 5 4 5 5 6 7 5 7 7 8 9 9 10 8
6 9 11 10 8 8 9 7 6 9 10 11 11 10 9 10 11 10 2 3 4 5 5 6 4 6 5 4 3 3 4 3 3 5 7 6 6 7 5 5 4 4 4 5 6 6 7 8 6 7 8 10 10 11
7 8 7 8 5 5 6 8 7 11 10 8 11 12 12 11 14 3 4 5 5 7 5 5 5 6 5 4 3 4 3 7 7 5 5 6 7 8 7 5 4 5 5 6 6 6 8 10 9 10 10 10 11 11
Wind_Direction
340 343 341 341 341 341 343 343 343 343 345 348 346 344 346 346 236 228 271 239 250 271 283 277 197 220 286 254 302 335 178 213 227 215 180 199 277 237 259 209 191 199 205 206 212 200 221 196 197 182 217 266 177 198
339 342 341 338 338 338 340 340 341 341 345 346 348 357 2 6 289 257 295 229 235 243 283 295 281 197 236 240 269 317 308 318 273 240 187 152 235 310 352 286 219 208 213 211 215 204 181 211 199 167 188 170 153 171
339 338 341 339 335 334 336 337 339 340 341 342 345 351 358 339 323 289 294 301 266 275 268 234 279 154 201 220 236 290 327 346 309 337 323 254 196 232 238 251 354 290 232 214 212 201 156 177 193 169 211 214 193 203
336 336 335 336 337 334 332 330 332 335 336 337 339 335 329 326 328 322 301 299 294 294 277 349 246 195 84 236 238 267 300 283 300 298 300 291 273 191 260 266 276 251 340 257 194 233 159 174 191 190 203 193 98 241
332 331 331 332 333 332 328 326 325 328 332 333 334 327 318 312 314 300 288 291 337 316 313 302 302 3 303 238 254 271 268 269 268 249 246 268 267 285 243 252 252 252 262 265 208 183 232 186 196 217 285 216 173 233
328 328 328 327 328 329 328 327 326 323 321 324 325 321 310 302 313 313 284 236 340 28 291 301 328 287 223 248 268 263 253 235 252 272 277 213 271 276 263 245 239 247 258 264 290 58 340 312 337 336 306 300 185 235
326 325 325 326 327 327 328 326 324 323 319 318 318 312 297 293 283 273 314 340 335 315 268 291 311 357 330 323 295 280 249 251 246 257 255 259 247 203 251 267 268 236 238 252 259 309 265 260 260 258 286 263 259 228
322 323 324 325 326 326 328 325 323 321 319 318 316 309 287 276 265 276 285 239 310 250 246 267 281 325 297 244 250 237 268 259 240 244 246 234 245 212 239 244 253 270 260 235 245 216 254 279 314 295 278 286 297 273
322 323 324 326 327 329 326 324 324 325 321 321 312 298 243 238 226 93 351 277 239 279 295 253 279 316 329 344 291 198 241 255 260 239 242 245 241 241 229 239 256 248 252 262 259 215 203 249 253 255 270 260 256 264
321 323 325 327 327 325 323 325 329 326 322 307 281 206 196 45 335 285 190 212 222 248 228 270 213 259 246 262 279 246 211 238 242 241 223 236 240 240 242 248 231 229 244 233 228 247 234 231 240 247 245 258 272 268
321 323 325 328 327 323 323 332 333 321 295 350 2 313 352 322 252 249 275 256 203 252 232 288 322 301 171 234 255 240 251 266 249 237 195 229 227 224 225 236 234 216 226 245 237 241 249 252 240 244 247 247 250 247
320 322 326 328 324 319 326 335 337 316 356 334 304 280 270 264 302 307 316 306 263 297 305 314 326 326 107 139 240 223 258 243 251 343 241 244 265 310 194 209 222 231 233 234 228 233 232 240 243 252 263 263 243 241
320 322 326 326 320 317 331 336 330 306 277 225 228 258 2 341 2 1 345 322 330 327 322 331 316 301 192 176 206 224 236 240 338 250 258 24 19 0 331 289 218 220 229 234 233 247 235 228 225 227 235 241 251 242
319 320 324 320 313 327 328 331 326 313 265 339 323 12 16 336 337 300 292 280 301 293 303 297 299 263 244 233 212 244 273 267 257 245 350 7 15 356 344 328 298 257 239 233 231 229 224 222 216 222 228 224 226 229
319 318 319 314 338 330 327 324 309 279 315 344 343 344 7 318 322 292 269 351 313 268 291 302 324 13 333 323 6 311 325 11 356 317 325 358 14 15 338 346 62 47 31 3 327 252 213 188 185 192 171 131 80 68
322 310 4 352 337 327 320 308 257 282 313 322 15 335 348 358 4 5 8 23 358 344 349 2 3 353 345 333 335 16 329 350 316 283 248 156 59 43 37 35 48 32 19 7 344 339 118 123 124 109 82 91 117 103
315 294 356 344 331 314 294 291 302 313 323 342 337 319 14 356 15 359 13 359 1 350 10 15 21 351 317 334 357 13 334 302 291 339 352 83 93 75 85 88 86 61 22 347 359 10 48 85 111 109 102 97 90 80
295 316 329 328 327 291 284 306 308 283 291 325 335 335 352 331 351 358 21 2 347 360 4 59 66 3 355 333 353 336 288 337 343 344 9 27 100 99 104 90 77 107 99 25 357 29 24 59 85 79 75 66 74 69
304 304 302 297 306 302 292 309 337 299 286 308 349 326 332 337 339 3 15 14 356 1 10 20 55 15 335 332 344 6 338 4 337 345 360 31 48 55 76 86 100 84 71 87 73 64 40 42 50 58 53 66 53 38
297 286 285 277 243 272 271 257 216 259 273 299 283 319 316 306 325 343 13 20 0 30 21 43 23 15 8 72 357 332 303 344 329 34 355 2 55 64 65 67 52 57 81 65 58 70 83 65 51 72 73 43 35 40
296 8 327 272 222 249 277 295 282 246 295 278 301 307 324 312 316 339 6 10 34 26 22 27 21 359 345 84 112 323 336 3 54 23 14 12 25 56 39 47 62 52 51 62 59 61 69 77 79 65 74 88 117 108
283 349 286 244 261 232 251 220 282 308 264 276 293 305 295 284 280 336 333 347 28 43 29 25 340 22 345 34 15 37 3 360 2 35 21 36 33 30 25 43 33 37 48 50 54 53 58 48 63 70 86 97 75 49
287 209 230 238 248 239 260 234 253 245 278 307 328 302 275 263 293 342 328 322 102 31 6 13 351 356 2 12 22 36 29 33 348 41 7 42 40 39 39 26 33 32 34 23 28 51 65 27 38 62 80 77 79 89
143 254 255 237 210 241 237 222 228 234 274 277 278 280 293 274 315 278 231 230 43 59 17 350 336 17 321 33 16 3 20 74 242 19 16 38 355 58 59 40 28 21 29 30 33 32 21 25 9 36 40 46 67 71
258 252 206 251 239 211 221 212 213 231 253 267 268 272 273 356 271 280 264 277 29 43 18 357 357 342 8 11 1 358 23 336 38 45 352 360 30 82 16 79 62 24 8 33 19 29 34 29 26 38 43 25 4 24
240 231 201 208 218 206 200 213 203 227 252 267 265 256 320 267 246 248 214 246 42 19 35 343 338 335 353 354 3 359 0 345 342 61 23 14 16 27 12 26 31 52 20 359 24 20 37 30 30 41 50 47 27 12
240 236 216 247 231 200 216 229 284 254 244 248 244 257 264 250 253 231 72 69 359 349 343 321 360 336 324 330 359 348 322 8 10 15 28 42 49 34 31 32 37 14 11 9 360 11 15 54 38 36 49 49 36 24
231 246 217 202 215 212 235 215 215 227 224 226 206 229 229 215 242 89 183 237 322 326 312 306 295 295 315 344 330 320 319 296 219 260 237 111 75 56 39 56 53 276 15 42 1 16 355 19 45 47 39 45 46 36
228 229 223 197 209 187 223 211 225 221 223 225 214 233 257 273 294 317 322 316 299 282 288 292 290 274 255 255 246 333 358 342 327 295 269 254 167 71 27 19 22 22 2 45 91 46 26 19 22 5 20 29 17 45
232 204 202 192 205 216 217 208 232 238 238 239 263 275 275 270 269 282 287 287 288 300 312 302 294 276 266 266 249 69 20 5 10 356 25 4 20 17 12 4 2 7 5 7 357 45 20 38 57 35 40 44 26 35
214 197 211 211 225 233 239 239 212 227 245 257 266 263 253 260 260 257 274 280 291 314 300 290 280 317 82 105 61 45 95 60 20 24 6 335 358 7 2 350 353 6 13 23 25 19 33 55 56 49 43 48 46 45
212 215 217 224 240 256 274 255 239 248 251 250 247 247 256 260 271 270 74 313 283 293 295 299 347 75 89 109 142 123 281 110 66 32 14 349 354 353 343 347 356 3 30 49 60 55 56 61 66 70 63 52 47 43
225 218 212 248 248 269 252 245 260 266 266 265 270 272 271 269 279 94 94 40 18 15 35 53 65 73 77 64 64 83 34 74 79 80 75 43 23 349 315 7 14 22 50 52 65 64 66 71 69 66 63 62 57 49